EW6899 Weather Reports


time (UTC)temp
C
wind
direction
speed
KPH
gust
KPH
rain 1hr
cm
rain 24hr
cm
rain mn
cm
humidity
%
barometer
mb
20260906113048 13 37 1.6 4.8 0.00 0.00 0.00 93 1016.7
20260906112548 13 38 1.6 3.2 0.00 0.00 0.00 94 1016.7
20260906112048 13 36 1.6 3.2 0.00 0.00 0.00 94 1016.7
20260906111553 13 36 1.6 3.2 0.00 0.00 0.00 93 1016.5
20260906111050 13 36 1.6 3.2 0.00 0.00 0.00 93 1016.5
20260906110546 13 36 1.6 4.8 0.00 0.00 0.00 93 1016.5
20260906110055 13 36 1.6 4.8 0.00 0.00 0.00 93 1016.5
20260906105544 13 36 1.6 3.2 0.00 0.00 0.00 93 1016.5
20260906105043 14 37 1.6 4.8 0.00 0.00 0.00 93 1016.5
20260906104542 14 36 1.6 4.8 0.00 0.00 0.00 93 1016.1
20260906104041 14 29 1.6 3.2 0.00 0.00 0.00 93 1016.1
20260906103541 14 29 1.6 3.2 0.00 0.00 0.00 93 1016.1
20260906103040 14 28 1.6 4.8 0.00 0.00 0.00 92 1016.1
20260906102540 15 28 1.6 6.4 0.00 0.00 0.00 92 1016.1
20260906102042 15 39 3.2 8.0 0.00 0.00 0.00 93 1016.1
20260906101539 15 50 3.2 8.0 0.00 0.00 0.00 93 1015.9
20260906101039 15 49 3.2 8.0 0.00 0.00 0.00 93 1015.9
20260906100538 15 66 3.2 11.3 0.00 0.00 0.00 92 1015.9
20260906100039 15 33 3.2 11.3 0.00 0.00 0.00 92 1016.0
20260906095539 15 46 3.2 9.7 0.00 0.00 0.00 92 1016.0
20260906095036 15 57 3.2 9.7 0.00 0.00 0.00 92 1016.0
20260906094535 15 29 1.6 11.3 0.00 0.00 0.00 92 1016.0
20260906094035 15 40 4.8 11.3 0.00 0.00 0.00 92 1016.0
20260906093534 15 33 4.8 8.0 0.00 0.00 0.00 92 1016.0
20260906093046 15 45 3.2 8.0 0.00 0.00 0.00 92 1016.0
20260906092534 15 58 3.2 11.3 0.00 0.00 0.00 91 1016.0
20260906092033 15 48 4.8 11.3 0.00 0.00 0.00 92 1016.0
20260906091533 15 60 3.2 8.0 0.00 0.00 0.00 91 1015.6
20260906091033 16 73 4.8 12.9 0.00 0.00 0.00 92 1015.6
20260906090531 16 43 6.4 12.9 0.00 0.00 0.00 91 1015.6
20260906090047 16 46 3.2 14.5 0.00 0.00 0.00 92 1015.6
20260906085529 16 54 6.4 14.5 0.00 0.00 0.00 92 1015.6
20260906085033 16 60 4.8 14.5 0.00 0.00 0.00 92 1015.6
20260906084534 16 65 6.4 14.5 0.00 0.00 0.00 92 1015.5
20260906084028 16 75 8.0 14.5 0.00 0.00 0.00 92 1015.5
20260906083527 16 98 6.4 14.5 0.00 0.00 0.00 92 1015.5
20260906083035 16 103 6.4 14.5 0.00 0.00 0.00 92 1015.4
20260906082526 16 87 6.4 12.9 0.00 0.00 0.00 92 1015.4
20260906082026 16 59 4.8 11.3 0.00 0.00 0.00 92 1015.4
20260906081525 16 89 4.8 11.3 0.00 0.00 0.00 92 1015.4
20260906081026 16 61 4.8 11.3 0.00 0.00 0.00 92 1015.4
20260906080527 16 85 4.8 11.3 0.00 0.00 0.00 92 1015.4
20260906080024 16 29 4.8 8.0 0.00 0.00 0.00 92 1015.4
20260906075527 16 80 3.2 12.9 0.00 0.00 0.00 92 1015.4
20260906075024 16 78 4.8 12.9 0.00 0.00 0.00 92 1015.4
20260906074533 16 76 6.4 14.5 0.00 0.00 0.00 92 1015.3
20260906074022 16 82 6.4 14.5 0.00 0.00 0.00 92 1015.3
20260906073521 17 78 3.2 12.9 0.00 0.00 0.00 91 1015.3
20260906073024 17 73 6.4 12.9 0.00 0.00 0.00 91 1015.2
20260906072521 17 63 3.2 12.9 0.00 0.00 0.00 91 1015.2
20260906072020 17 41 4.8 11.3 0.00 0.00 0.00 91 1015.2
20260906071520 17 86 3.2 8.0 0.00 0.00 0.00 91 1015.3
20260906071021 17 77 3.2 9.7 0.00 0.00 0.00 91 1015.3
20260906070520 17 39 3.2 12.9 0.00 0.00 0.00 90 1015.3
20260906070020 17 81 6.4 12.9 0.00 0.43 0.00 90 1015.4
20260906065524 17 57 3.2 11.3 0.00 0.43 0.00 90 1015.4
20260906065025 17 60 4.8 11.3 0.00 0.43 0.00 90 1015.4
20260906064517 17 89 3.2 12.9 0.00 0.43 0.00 90 1015.4
20260906064017 17 54 6.4 16.1 0.00 0.43 0.00 90 1015.4
20260906063518 17 75 8.0 16.1 0.00 0.43 0.00 90 1015.4
20260906063015 17 80 6.4 14.5 0.00 0.43 0.00 90 1015.4
20260906062514 17 43 4.8 14.5 0.00 0.43 0.00 90 1015.4
20260906062014 17 86 6.4 14.5 0.00 0.43 0.00 90 1015.4
20260906061513 17 76 9.7 16.1 0.00 0.43 0.00 90 1015.4
20260906061012 17 39 8.0 16.1 0.00 0.43 0.00 90 1015.4
20260906060512 18 56 6.4 14.5 0.00 0.43 0.00 89 1015.4
20260906060012 18 60 6.4 14.5 0.00 1.55 0.00 89 1015.2
20260906055510 18 51 8.0 17.7 0.00 1.55 0.00 89 1015.2
20260906055010 18 69 9.7 17.7 0.00 1.55 0.00 89 1015.2
20260906054509 18 50 8.0 16.1 0.00 1.55 0.00 89 1015.0
20260906054008 18 79 8.0 20.9 0.00 1.55 0.00 89 1015.0
20260906053508 18 38 9.7 20.9 0.00 1.55 0.00 89 1015.0
20260906053005 18 91 9.7 16.1 0.00 1.55 0.00 88 1014.8
20260906052506 18 86 6.4 19.3 0.00 1.55 0.00 89 1014.8
20260906052005 18 53 8.0 19.3 0.00 1.55 0.00 89 1014.8
20260906051504 18 71 4.8 20.9 0.00 1.55 0.00 89 1014.8
20260906051003 18 64 8.0 16.1 0.00 1.55 0.00 89 1014.8
20260906050502 18 86 6.4 16.1 0.00 1.91 0.00 88 1014.8
20260906050002 18 67 8.0 14.5 0.00 1.91 0.00 89 1014.7
20260906045500 18 49 4.8 11.3 0.00 1.91 0.00 89 1014.7
20260906045100 18 51 4.8 14.5 0.00 1.91 0.00 89 1014.7
20260906044619 18 43 4.8 16.1 0.00 1.91 0.00 90 1014.4
20260906044501 18 100 6.4 16.1 0.00 1.91 0.00 90 1014.4
20260906044058 18 69 6.4 16.1 0.00 1.91 0.00 90 1014.4
20260906043558 18 56 8.0 14.5 0.00 1.91 0.00 90 1014.4
20260906043101 18 43 6.4 12.9 0.00 1.91 0.00 90 1014.5
20260906042558 18 53 6.4 11.3 0.00 1.91 0.00 90 1014.5
20260906042056 18 27 4.8 14.5 0.00 1.91 0.00 91 1014.5
20260906041558 18 33 6.4 14.5 0.00 1.91 0.00 91 1014.4
20260906041056 18 60 3.2 12.9 0.00 1.91 0.00 92 1014.4
20260906040558 18 43 3.2 9.7 0.00 1.91 0.00 93 1014.4
20260906040055 18 57 3.2 9.7 0.00 1.91 1.91 93 1014.5
20260906035558 18 48 4.8 9.7 0.00 1.91 1.91 93 1014.5
20260906035054 18 56 3.2 6.4 0.00 1.91 1.91 93 1014.5
20260906034554 19 50 1.6 8.0 0.00 1.91 1.91 94 1014.4
20260906034056 19 25 4.8 8.0 0.00 1.91 1.91 94 1014.4
20260906033554 19 48 1.6 8.0 0.00 1.91 1.91 94 1014.4
20260906033053 19 50 3.2 9.7 0.00 1.91 1.91 94 1014.4
20260906032553 19 22 4.8 9.7 0.00 1.91 1.91 94 1014.4
20260906032053 19 10 4.8 9.7 0.00 1.91 1.91 94 1014.4
20260906031553 19 31 3.2 9.7 0.00 1.91 1.91 94 1014.4
20260906031053 19 56 1.6 8.0 0.00 1.91 1.91 94 1014.4
20260906030552 19 360 3.2 8.0 0.00 1.91 1.91 95 1014.4
20260906030053 19 4 4.8 6.4 0.00 1.91 1.91 95 1014.3
20260906025552 19 350 1.6 4.8 0.00 1.91 1.91 94 1014.3
20260906025052 19 29 0.0 3.2 0.00 1.91 1.91 94 1014.3
20260906024609 19 29 1.6 3.2 0.00 1.91 1.91 94 1014.0
20260906024050 19 29 0.0 3.2 0.00 1.91 1.91 94 1014.0
20260906023550 19 29 0.0 3.2 0.00 1.91 1.91 94 1014.0
20260906023100 19 29 1.6 3.2 0.00 1.91 1.91 93 1013.7
20260906022550 20 29 0.0 3.2 0.00 1.91 1.91 93 1013.7
20260906022050 20 29 0.0 3.2 0.00 1.91 1.91 93 1013.7
20260906021551 20 29 0.0 1.6 0.00 1.91 1.91 93 1013.7
20260906021049 20 29 0.0 1.6 0.00 1.91 1.91 93 1013.7
20260906020550 20 29 0.0 1.6 0.00 1.91 1.91 93 1013.7
20260906020051 20 29 0.0 1.6 0.00 1.91 1.91 93 1013.7
20260906015549 20 29 0.0 3.2 0.00 1.91 1.91 93 1013.7
20260906015049 20 29 1.6 3.2 0.00 1.91 1.91 92 1013.7
20260906014552 20 29 1.6 3.2 0.00 1.91 1.91 92 1013.6
20260906014049 21 29 1.6 3.2 0.00 1.91 1.91 93 1013.6
20260906013548 21 29 0.0 1.6 0.00 1.91 1.91 92 1013.6
20260906013048 21 29 0.0 0.0 0.00 1.91 1.91 92 1013.6
20260906012547 21 29 0.0 1.6 0.00 1.91 1.91 92 1013.6
20260906012047 21 29 0.0 1.6 0.00 1.91 1.91 92 1013.6
20260906011557 21 29 1.6 1.6 0.00 1.91 1.91 92 1013.2
20260906011047 21 29 0.0 1.6 0.00 1.91 1.91 92 1013.2
20260906010547 21 29 0.0 3.2 0.00 1.91 1.91 92 1013.2
20260906010117 21 29 0.0 4.8 0.00 1.91 1.91 92 1013.2
20260906005546 21 29 1.6 4.8 0.00 1.91 1.91 92 1013.2
20260906005046 21 29 3.2 4.8 0.00 1.91 1.91 92 1013.2
20260906004548 21 41 0.0 3.2 0.00 1.91 1.91 92 1013.1
20260906004045 21 41 0.0 3.2 0.00 1.91 1.91 92 1013.1
20260906003545 21 41 1.6 3.2 0.00 1.91 1.91 92 1013.1
20260906003047 21 41 0.0 4.8 0.00 1.91 1.91 91 1012.9
20260906002544 21 40 1.6 4.8 0.00 1.91 1.91 91 1012.9
20260906002047 21 40 3.2 4.8 0.00 1.91 1.91 91 1012.9
20260906001600 21 56 1.6 4.8 0.00 1.91 1.91 91 1013.0
20260906001044 21 59 1.6 4.8 0.00 1.91 1.91 90 1013.0
20260906000544 21 59 0.0 4.8 0.00 1.91 1.91 90 1013.0
20260906000044 21 61 1.6 6.4 0.00 1.91 1.91 90 1012.9
20260905235544 21 39 1.6 6.4 0.00 1.91 1.91 90 1012.9
20260905235044 22 72 3.2 6.4 0.00 1.91 1.91 90 1012.9
20260905234544 22 39 1.6 6.4 0.00 1.91 1.91 90 1013.0
20260905234043 22 49 3.2 6.4 0.00 1.91 1.91 90 1013.0
20260905233543 22 24 3.2 6.4 0.00 1.91 1.91 89 1013.0
20260905233043 22 27 1.6 8.0 0.00 1.91 1.91 89 1013.0
20260905232544 22 38 1.6 8.0 0.00 1.91 1.91 89 1013.0
20260905232042 22 45 3.2 11.3 0.00 1.91 1.91 89 1013.0
20260905231545 22 44 3.2 11.3 0.00 1.91 1.91 89 1012.8
20260905231041 22 81 4.8 11.3 0.00 1.91 1.91 89 1012.8
20260905230541 22 56 3.2 16.1 0.00 1.91 1.91 89 1012.8
20260905230047 22 66 8.0 16.1 0.00 1.91 1.91 89 1012.6
20260905225541 22 50 8.0 14.5 0.00 1.91 1.91 89 1012.6
20260905225041 22 30 8.0 14.5 0.00 1.91 1.91 88 1012.6
20260905224545 22 50 4.8 16.1 0.00 1.91 1.91 88 1012.4
20260905224040 22 53 8.0 17.7 0.00 1.91 1.91 88 1012.4
20260905223541 22 87 6.4 20.9 0.00 1.91 1.91 88 1012.4
20260905223043 22 66 8.0 20.9 0.00 1.91 1.91 88 1012.2
20260905222541 22 52 6.4 24.1 0.00 1.91 1.91 88 1012.2
20260905222040 22 27 9.7 24.1 0.00 1.91 1.91 89 1012.2
20260905221549 22 69 11.3 17.7 0.00 1.91 1.91 89 1012.3
20260905221039 22 80 6.4 16.1 0.00 1.91 1.91 88 1012.3
20260905220539 22 22 6.4 16.1 0.00 1.91 1.91 89 1012.3
20260905220039 22 30 4.8 17.7 0.00 1.91 1.91 89 1012.2
20260905215539 22 49 4.8 17.7 0.00 1.91 1.91 88 1012.2
20260905215038 22 62 8.0 17.7 0.00 1.91 1.91 89 1012.2
20260905214539 22 14 4.8 16.1 0.00 1.91 1.91 88 1012.0
20260905214039 22 81 9.7 17.7 0.00 1.91 1.91 89 1012.0
20260905213539 22 21 8.0 17.7 0.00 1.91 1.91 89 1012.0
20260905213050 22 62 11.3 19.3 0.00 1.91 1.91 89 1012.0
20260905212540 22 35 12.9 19.3 0.00 1.91 1.91 90 1012.0
20260905212038 22 23 8.0 14.5 0.00 1.91 1.91 90 1012.0
20260905211544 22 7 8.0 16.1 0.00 1.91 1.91 91 1012.0
20260905211041 22 346 8.0 17.7 0.00 1.91 1.91 90 1012.0
20260905210537 22 23 8.0 17.7 0.00 1.91 1.91 90 1012.0
20260905210039 23 50 11.3 24.1 0.00 1.91 1.91 90 1011.7
20260905205537 23 23 17.7 24.1 0.00 1.91 1.91 89 1011.7
20260905205039 23 360 16.1 20.9 0.00 1.91 1.91 89 1011.7
20260905204537 23 345 8.0 17.7 0.00 1.91 1.91 89 1011.8
20260905204036 23 8 8.0 16.1 0.00 1.91 1.91 89 1011.8
20260905203537 23 35 6.4 14.5 0.00 1.91 1.91 89 1011.8
20260905203050 23 355 8.0 14.5 0.00 1.91 1.91 89 1011.9
20260905202538 24 12 8.0 14.5 0.00 1.91 1.91 88 1011.9
20260905202036 24 335 8.0 16.1 0.00 1.91 1.91 89 1011.9
20260905201552 24 6 6.4 16.1 0.00 1.91 1.91 88 1011.9
20260905201034 24 337 9.7 14.5 0.00 1.91 1.91 88 1011.9
20260905200535 24 346 6.4 16.1 0.00 1.91 1.91 88 1011.9
20260905200037 24 8 8.0 17.7 0.00 1.91 1.91 87 1011.9
20260905195536 24 11 12.9 17.7 0.00 1.91 1.91 88 1011.9
20260905195034 24 350 6.4 16.1 0.00 1.91 1.91 87 1011.9
20260905194534 24 350 8.0 16.1 0.00 1.91 1.91 88 1012.0
20260905194033 24 6 8.0 16.1 0.00 1.91 1.91 88 1012.0
20260905193536 25 46 8.0 17.7 0.00 1.91 1.91 88 1012.0
20260905193037 24 355 9.7 17.7 0.00 1.91 1.91 87 1011.9
20260905192535 25 24 9.7 17.7 0.00 1.91 1.91 87 1011.9
20260905192032 25 350 8.0 14.5 0.00 1.91 1.91 86 1011.9
20260905191533 25 4 11.3 16.1 0.00 1.91 1.91 87 1012.0
20260905191034 25 326 9.7 16.1 0.00 1.91 1.91 86 1012.0
20260905190533 25 344 11.3 16.1 0.00 1.91 1.91 87 1012.0
20260905190032 25 21 8.0 16.1 0.00 1.91 1.91 84 1012.0
20260905185533 25 337 6.4 12.9 0.00 1.91 1.91 81 1012.0
20260905185031 26 46 6.4 12.9 0.00 1.91 1.91 84 1012.0
20260905184531 25 106 4.8 12.9 0.00 1.91 1.91 83 1012.0
20260905184030 25 23 6.4 12.9 0.00 1.91 1.91 83 1012.0
20260905183529 25 39 4.8 11.3 0.00 1.91 1.91 83 1012.0
20260905183039 25 70 3.2 9.7 0.00 1.91 1.91 84 1012.0
20260905182529 25 37 3.2 9.7 0.00 1.91 1.91 85 1012.0
20260905182031 25 35 3.2 11.3 0.00 1.91 1.91 83 1012.0
20260905181528 25 342 4.8 11.3 0.00 1.91 1.91 84 1012.0
20260905181027 25 33 4.8 11.3 0.00 1.91 1.91 83 1012.0
20260905180527 25 50 6.4 14.5 0.00 1.91 1.91 83 1012.0
20260905180026 25 355 6.4 12.9 0.00 1.91 1.91 84 1012.1
20260905175526 25 123 9.7 12.9 0.00 1.91 1.91 88 1012.1
20260905175024 24 77 4.8 11.3 0.00 1.91 1.91 85 1012.1
20260905174524 24 65 4.8 11.3 0.00 1.91 1.91 86 1012.1
20260905174024 24 8 4.8 11.3 0.00 1.91 1.91 87 1012.1
20260905173524 24 16 6.4 11.3 0.00 1.91 1.91 86 1012.1
20260905173022 24 49 6.4 11.3 0.00 1.91 1.91 88 1012.3
20260905172521 24 58 4.8 12.9 0.00 1.91 1.91 88 1012.3
20260905172021 23 72 4.8 9.7 0.00 1.91 1.91 88 1012.3
20260905171521 23 33 3.2 8.0 0.00 1.91 1.91 87 1012.6
20260905171020 23 85 3.2 8.0 0.00 1.91 1.91 89 1012.6
20260905170520 23 360 3.2 8.0 0.00 1.91 1.91 88 1012.6
20260905170019 23 337 3.2 8.0 0.00 2.69 1.91 89 1012.5
20260905165519 23 23 4.8 9.7 0.00 2.69 1.91 88 1012.5
20260905165019 23 88 1.6 9.7 0.00 2.69 1.91 88 1012.5
20260905164519 23 36 4.8 9.7 0.00 2.69 1.91 88 1012.5
20260905164018 23 103 3.2 9.7 0.00 2.69 1.91 88 1012.5
20260905163518 23 360 4.8 9.7 0.00 2.69 1.91 89 1012.5
20260905163018 23 61 3.2 11.3 0.00 2.69 1.91 89 1012.4
20260905162519 23 33 3.2 14.5 0.00 2.69 1.91 89 1012.4
20260905162016 23 84 6.4 12.9 0.00 2.69 1.91 90 1012.4
20260905161518 23 38 6.4 12.9 0.00 2.69 1.91 90 1012.5
20260905161017 23 21 3.2 11.3 0.00 2.69 1.91 91 1012.5
20260905160516 23 38 4.8 11.3 0.00 2.69 1.91 91 1012.5
20260905160013 22 46 3.2 11.3 0.00 2.69 1.91 91 1012.1
20260905155515 22 38 6.4 11.3 0.00 2.69 1.91 92 1012.1
20260905155012 22 19 3.2 14.5 0.00 2.69 1.91 93 1012.1
20260905154513 22 55 8.0 14.5 0.00 2.69 1.91 94 1012.2
20260905154012 22 59 6.4 12.9 0.00 2.69 1.91 93 1012.2
20260905153512 22 32 3.2 12.9 0.00 2.69 1.91 94 1012.2
20260905153018 22 35 4.8 12.9 0.00 2.69 1.91 95 1012.1
20260905152512 22 46 4.8 11.3 0.00 2.69 1.91 95 1012.1
20260905152012 22 68 4.8 11.3 0.00 2.69 1.91 95 1012.1
20260905151517 21 19 6.4 11.3 0.00 2.69 1.91 95 1012.3
20260905151014 21 46 4.8 11.3 0.00 2.69 1.91 96 1012.3
20260905150514 21 33 6.4 11.3 0.00 2.69 1.91 95 1012.3
20260905150018 21 68 4.8 12.9 0.00 2.72 1.91 96 1012.1
20260905145512 21 355 6.4 11.3 0.00 2.72 1.91 96 1012.1
20260905145011 21 73 3.2 8.0 0.00 2.72 1.91 96 1012.1
20260905144517 21 53 4.8 8.0 0.00 2.72 1.91 96 1012.1
20260905144010 21 51 1.6 6.4 0.00 2.72 1.91 96 1012.1
20260905143511 21 48 3.2 9.7 0.00 2.72 1.91 96 1012.1
20260905143011 21 25 4.8 9.7 0.00 2.72 1.91 96 1012.1
20260905142511 21 160 3.2 9.7 0.00 2.72 1.91 96 1012.1
20260905142010 21 127 3.2 9.7 0.00 2.72 1.91 96 1012.1
20260905141510 21 127 4.8 12.9 0.00 2.72 1.91 96 1011.8
20260905141011 21 127 4.8 14.5 0.00 2.72 1.91 96 1011.8
20260905140510 21 129 6.4 16.1 0.00 2.72 1.91 96 1011.8
20260905140010 21 117 6.4 12.9 0.00 2.72 1.91 96 1011.7
20260905135510 21 79 3.2 14.5 0.00 2.72 1.91 96 1011.7
20260905135009 21 93 4.8 14.5 0.00 2.72 1.91 96 1011.7
20260905134510 20 93 9.7 12.9 0.00 2.72 1.91 96 1011.9
20260905134008 20 57 3.2 14.5 0.00 2.72 1.91 96 1011.9
20260905133509 20 34 6.4 14.5 0.00 2.72 1.91 96 1011.9
20260905133008 20 107 4.8 12.9 0.00 2.72 1.91 96 1011.9
20260905132508 20 107 4.8 11.3 0.00 2.72 1.91 96 1011.9
20260905132008 20 110 4.8 12.9 0.00 2.72 1.91 96 1011.9
20260905131508 20 83 3.2 12.9 0.00 2.72 1.91 96 1011.5
20260905131007 20 80 3.2 12.9 0.00 2.72 1.91 96 1011.5
20260905130507 20 82 6.4 12.9 0.00 2.72 1.91 96 1011.5
20260905130008 20 85 8.0 12.9 0.00 2.72 1.91 96 1011.8
20260905125507 20 75 6.4 12.9 0.00 2.72 1.91 96 1011.8
20260905125007 20 78 6.4 12.9 0.00 2.72 1.91 96 1011.8
20260905124514 20 50 4.8 14.5 0.00 2.72 1.91 96 1011.7
20260905124006 20 77 6.4 14.5 0.00 2.72 1.91 96 1011.7
20260905123506 20 4 3.2 14.5 0.00 2.72 1.91 96 1011.7
20260905123004 20 66 9.7 14.5 0.00 2.72 1.91 96 1011.5
20260905122505 20 54 1.6 4.8 0.00 2.72 1.91 96 1011.5
20260905122004 20 54 1.6 8.0 0.00 2.72 1.91 96 1011.5
20260905121505 20 86 3.2 8.0 0.00 2.72 1.91 96 1011.3
20260905121004 20 112 1.6 6.4 0.00 2.72 1.91 96 1011.3
20260905120504 20 71 3.2 6.4 0.00 2.72 1.91 96 1011.3
20260905120003 20 32 1.6 6.4 0.00 2.72 1.91 96 1011.0
20260905115503 20 71 3.2 12.9 0.00 2.72 1.91 96 1011.0
20260905115003 20 66 1.6 12.9 0.00 2.72 1.91 96 1011.0
20260905114504 19 40 3.2 9.7 0.00 2.72 1.91 96 1010.9
20260905114002 19 27 4.8 8.0 0.00 2.72 1.91 96 1010.9
20260905113503 18 4 3.2 8.0 0.00 2.72 1.91 96 1010.9